This demonstration page uses our WeatherBlox Daily Observations layout. Learn more.

Left ArrowRight Arrow

Hourly Observations for March 10, 2015

Temp ( °F °C ) Dew Point ( °F °C ) Humidity (%) Winds ( mph kmh ) Pressure ( in mb ) Visibility ( mi km ) Precip ( " mm )
12:51 am 00:51 Clear 46 7.8 26 -3.3 46 46 N 5 7 29.86 1011 10 16 0.00 0.00
1:51 am 01:51 Clear 46 7.8 28 -2.2 50 50 SSE 5 7 29.86 1011 10 16 0.00 0.00
2:51 am 02:51 Clear 44 6.7 27 -2.8 51 51 ESE 3 6 29.87 1011 10 16 0.00 0.00
3:51 am 03:51 Clear 42 5.6 27 -2.8 55 55 Calm 29.88 1012 10 16 0.00 0.00
4:51 am 04:51 Clear 42 5.6 27 -2.8 55 55 Calm 29.89 1012 10 16 0.00 0.00
5:51 am 05:51 Clear 39 3.9 26 -3.3 60 60 Calm 29.92 1013 10 16 0.00 0.00
6:51 am 06:51 Sunny 37 2.8 26 -3.3 65 65 Calm 29.95 1014 10 16 0.00 0.00
7:51 am 07:51 Sunny 47 8.3 26 -3.3 44 44 Calm 29.96 1014 10 16 0.00 0.00
8:51 am 08:51 Sunny 55 12.8 24 -4.4 30 30 Calm 29.97 1015 10 16 0.00 0.00
9:51 am 09:51 Sunny 62 16.7 25 -3.9 24 24 VRB 3 6 29.98 1015 10 16 0.00 0.00
10:51 am 10:51 Sunny 66 18.9 25 -3.9 21 21 VRB 3 6 29.98 1015 10 16 0.00 0.00
11:51 am 11:51 Sunny 68 20 22 -5.6 17 17 VRB 3 6 29.96 1015 10 16 0.00 0.00
12:51 pm 12:51 Sunny 71 21.7 19 -7.2 14 14 Calm 29.94 1014 10 16 0.00 0.00
1:51 pm 13:51 Sunny 74 23.3 13 -10.6 9 9 Calm 29.91 1013 10 16 0.00 0.00
2:51 pm 14:51 Sunny 75 23.9 13 -10.6 9 9 SW 8 13 29.89 1012 10 16 0.00 0.00
3:51 pm 15:51 Sunny 76 24.4 15 -9.4 10 10 W 8 13 29.89 1012 10 16 0.00 0.00
4:51 pm 16:51 Sunny 75 23.9 13 -10.6 9 9 WSW 3 6 29.89 1012 10 16 0.00 0.00
5:51 pm 17:51 Sunny 73 22.8 16 -8.9 11 11 WSW 6 9 29.90 1013 10 16 0.00 0.00
6:51 pm 18:51 Clear 66 18.9 19 -7.2 16 16 Calm 29.93 1014 10 16 0.00 0.00
7:51 pm 19:51 Clear 58 14.4 21 -6.1 24 24 N 6 9 29.95 1014 10 16 0.00 0.00
8:51 pm 20:51 Clear 56 13.3 20 -6.7 24 24 N 7 11 29.96 1015 10 16 0.00 0.00
9:51 pm 21:51 Clear 54 12.2 21 -6.1 28 28 E 5 7 29.99 1016 10 16 0.00 0.00
10:51 pm 22:51 Clear 53 11.7 21 -6.1 28 28 Calm 30.00 1016 10 16 0.00 0.00
11:51 pm 23:51 Clear 48 8.9 21 -6.1 34 34 ESE 5 7 30.01 1016 10 16 0.00 0.00

Powered by AerisWeather